User: anonymous   Login
Location: ??????
(55.6500°N, 37.8000°E)
Time: 18:34:58
(UTC+00:00)
Language:

Cosmos 1470 Rocket - Orbit

View from above orbital plane
View from above orbital plane
View from above satellite
View from above satellite

Ground track
Ground track

The orbit data is extracted from the following two-line orbital elements,

1 14148U 83061B   24165.70010797  .00000597  00000-0  67825-4 0  9998
2 14148  82.5193  36.9918 0020817 188.9716 171.1131 14.84491265192294
Epoch (UTC): 13 June 2024 16:48:09
Eccentricity: 0.0020817
inclination: 82.5193°
perigee height: 600 km
apogee height: 630 km
right ascension of ascending node: 36.9918°
argument of perigee: 188.9716°
revolutions per day: 14.84491265
mean anomaly at epoch: 171.1131°
orbit number at epoch: 19229

The dashed part of the orbit path shows where the satellite is in the earth's shadow,  

DLR